Flag Weather past 2 weeks in Chiclayo, Lambayeque, Peru

Now
64 °F

Clear.


Feels Like: 64 °F
Forecast: 63 / 76 °F
Wind: 10 mph from South

Location: Chiclayo Airport

Current Time: Nov 27, 2014 at 12:01:05 AM

Latest Report: Nov 26, 2014 at 11:00 PM


Visibility: 10 mi

Pressure: 29.98 "Hg

Humidity: 88%

Dew point: 61 °F

Location of ChiclayoLocation

Historic Weather in Chiclayo — Graph

°F

Chiclayo temperature yesterday

Maximum temperature yesterday: 77 °F (at 1:00 PM)
Minimum temperature yesterday: 64 °F (at 12:00 AM)
Average temperature yesterday: 69 °F

Past Weeks' High & Low Weather Summary

 TemperatureHumidityPressure
High79 °F (Nov 13, 12:00 PM)100% (Nov 21, 2:00 AM)30.01 "Hg (Nov 21, 2:00 AM)
Low61 °F (Nov 22, 6:00 AM)54% (Nov 25, 2:00 PM)29.80 "Hg (Nov 23, 5:00 PM)
Average69 °F80%29.93 "Hg
* Reported Nov 11 11:00 PM — Nov 26 11:00 PM, Chiclayo, Weather by CustomWeather, © 2014

Note: Actual official high and low records may vary slightly from our data, if they occured in-between our weather recording intervals... More about our weather records

Advertising

Chiclayo weather history for previous 24 hours

 ConditionsComfort  
Time TempWeatherWind HumidityBarometerVisibility
11:00 PM
Nov 26
64 °FClear.10 mph88%29.98 "Hg10 mi
10:00 PM66 °FClear.12 mph83%29.98 "Hg10 mi
9:00 PM66 °FClear.13 mph83%29.98 "Hg10 mi
8:00 PM68 °FClear.15 mph78%29.95 "Hg10 mi
7:00 PM68 °FClear.16 mph78%29.92 "Hg10 mi
6:00 PM70 °FSunny.17 mph73%29.89 "Hg10 mi
5:00 PM73 °FSunny.18 mph65%29.86 "Hg10 mi
4:00 PM73 °FSunny.20 mph65%29.86 "Hg10 mi
3:00 PM75 °FSunny.21 mph61%29.86 "Hg10 mi
2:00 PM75 °FSunny.21 mph61%29.89 "Hg10 mi
1:00 PM77 °FSunny.18 mph57%29.92 "Hg10 mi
12:00 PM75 °FSunny.16 mph61%29.95 "Hg10 mi
11:00 AM73 °FPassing clouds.13 mph69%29.95 "HgN/A
10:00 AM72 °FScattered clouds.9 mph73%29.98 "HgN/A
9:00 AM68 °FScattered clouds.10 mph83%29.98 "HgN/A
8:00 AM64 °FPassing clouds.10 mph94%29.98 "HgN/A
7:00 AM64 °FScattered clouds.7 mph88%29.95 "HgN/A
6:00 AM64 °FPassing clouds.8 mph88%29.95 "HgN/A
5:00 AM64 °FPassing clouds.8 mph88%29.92 "HgN/A
4:00 AM64 °FPassing clouds.7 mph88%29.89 "HgN/A
3:00 AM64 °FPassing clouds.5 mph88%29.92 "HgN/A
2:00 AM64 °FPassing clouds.9 mph88%29.92 "HgN/A
1:00 AM64 °FPassing clouds.13 mph88%29.92 "HgN/A
12:00 AM64 °FClear.10 mph94%29.95 "Hg10 mi
Weather by CustomWeather, © 2014

See weather overviewHow to use our weather pages